GFSSE_700_rhum_159.txt.gz
RH
27 18 14 13 14 16 16 16 17 19 22 23 23 23 23 23 23 23 23 23 22 22 21 20 20 20 19 18 17 17 23 28 23 23 32 46 48 48 49 51 49 44 45
34 22 16 12 13 14 16 16 17 18 20 23 25 24 25 25 25 25 24 24 24 24 24 24 23 22 22 21 21 19 19 27 34 28 32 45 49 53 52 52 51 48 48
25 23 20 14 12 13 14 16 17 18 19 21 25 27 27 27 26 26 26 26 26 25 25 25 25 25 24 24 23 22 22 20 21 39 52 56 59 58 56 55 54 52 52
25 28 24 19 13 12 14 14 18 17 19 21 25 29 32 31 30 30 31 31 31 31 30 28 27 26 26 26 25 24 24 23 23 26 38 50 55 52 65 61 58 58 58
21 33 32 26 16 14 14 19 23 23 20 24 30 36 38 34 32 31 34 33 34 37 39 40 39 38 36 32 30 29 28 26 25 25 30 23 39 49 53 45 46 56 60
21 20 29 31 21 19 21 18 21 26 24 28 35 42 44 39 33 32 31 34 33 34 39 42 44 46 48 51 49 46 41 38 35 33 29 35 31 37 48 41 43 53 54
16 15 30 36 42 39 43 38 24 28 31 34 39 46 45 40 35 32 31 32 33 33 35 40 42 43 42 48 55 58 62 62 60 57 54 34 34 28 26 27 37 31 50
16 13 35 39 54 55 47 41 42 38 38 40 44 50 46 36 34 32 32 32 32 31 34 36 40 40 39 37 42 48 54 63 71 72 64 57 50 46 44 30 27 27 28
17 12 37 37 45 50 52 50 47 42 43 44 46 50 38 31 31 30 30 31 32 32 31 35 35 37 37 35 33 34 36 43 58 65 66 53 49 58 72 67 49 36 30
16 11 23 30 34 46 58 57 50 49 47 48 50 37 27 27 27 29 30 32 34 35 34 33 34 34 34 35 34 34 36 36 39 40 41 51 56 47 51 56 63 70 63
18 11 18 25 30 45 49 48 52 51 52 47 29 25 26 28 30 30 31 32 32 34 35 35 34 34 34 33 33 36 38 42 44 47 52 57 54 59 55 60 69 65 67
22 13 16 21 29 35 40 42 44 38 29 26 28 29 23 13 11 11 14 20 28 34 36 36 35 35 35 36 34 35 40 45 49 54 57 56 60 54 46 54 64 72 69
23 18 14 20 25 25 28 30 29 28 29 30 25 13 11 10 11 11 12 13 13 19 32 38 38 38 38 37 36 41 42 45 46 45 52 49 73 75 57 59 64 73 74
25 23 19 18 21 22 26 23 23 28 26 23 14 11 11 11 12 13 14 13 14 15 15 22 30 40 40 41 40 40 41 45 45 44 42 38 34 49 28 37 52 68 68
27 25 23 20 17 21 20 18 23 21 17 13 13 13 13 13 15 15 14 12 10 11 10 11 12 18 32 38 39 40 41 44 46 52 42 39 37 35 29 35 43 50 67
30 28 27 25 21 22 19 18 18 19 16 13 13 13 14 16 16 14 12 10 9 9 8 7 8 9 11 15 17 18 20 29 35 33 37 25 17 12 12 17 16 16 23
38 32 30 28 25 23 22 18 18 18 15 15 14 16 17 17 14 12 10 9 9 9 8 8 8 9 9 8 8 9 9 10 10 13 11 9 9 10 8 8 8 8 8
44 34 34 33 29 26 24 19 20 19 18 17 16 17 19 19 16 14 11 9 9 9 10 9 9 9 9 9 9 9 9 10 10 9 8 8 9 9 8 7 6 6 6
64 42 38 36 34 31 28 25 25 24 20 19 19 20 20 21 19 18 15 11 9 9 9 10 10 10 10 10 10 10 10 10 9 8 8 8 7 7 6 6 5 5 6
59 53 46 42 39 37 33 32 31 30 26 24 22 22 23 24 22 22 21 17 11 10 10 10 10 10 11 11 10 10 10 9 8 8 8 8 8 7 7 6 6 7 7
53 50 43 49 42 40 39 38 38 38 36 30 27 24 25 25 26 27 26 20 13 10 10 10 10 10 11 10 10 10 10 10 9 9 9 8 8 9 9 8 7 5 4
45 43 38 42 44 35 34 40 46 47 43 38 34 28 27 27 27 29 28 25 15 11 10 10 10 10 11 11 11 11 11 11 10 11 10 9 8 7 6 5 4 4 4
49 44 44 47 43 49 51 44 45 44 42 40 42 38 30 30 30 30 29 27 21 14 11 10 10 10 11 11 11 11 11 11 10 9 10 9 6 5 4 4 4 5 5
47 46 45 45 46 52 49 49 45 43 47 48 52 48 36 32 33 32 28 28 24 18 16 15 14 13 12 11 11 11 11 10 10 10 9 6 5 5 5 5 5 4 4
56 58 55 53 56 58 56 53 52 52 47 44 51 51 44 36 36 35 31 27 25 22 21 20 19 17 15 12 11 12 13 12 10 8 7 7 5 6 6 6 6 6 6
50 54 55 64 66 67 55 42 30 28 33 48 50 54 52 43 40 39 33 25 24 23 23 24 22 20 16 13 12 12 16 14 10 8 8 10 8 7 7 10 11 12 12

GFSSE_700_rhum_165.txt.gz
RH
19 19 15 12 13 16 17 17 19 20 21 21 22 22 23 23 24 24 24 24 24 24 24 23 23 22 22 21 19 20 28 25 26 36 43 45 48 48 50 51 51 45 41
22 20 18 14 13 15 17 17 18 21 23 23 23 23 24 24 25 25 25 25 25 25 25 25 25 24 24 23 22 21 23 38 38 37 44 48 52 51 52 54 54 51 47
32 23 22 19 15 14 16 17 17 18 22 24 24 24 24 25 25 26 27 28 28 28 27 26 26 26 25 25 24 24 23 27 33 45 55 61 60 59 57 56 58 58 54
30 26 23 22 18 14 15 16 17 18 19 23 26 26 26 27 27 26 27 29 30 32 33 32 30 30 29 28 27 26 25 25 30 34 53 58 55 44 42 52 56 57 58
26 25 29 28 19 15 14 15 16 17 18 20 25 30 29 27 27 26 27 28 30 32 36 39 41 41 40 39 36 34 32 29 29 32 28 43 46 48 44 42 52 52 56
24 22 26 30 27 17 14 14 15 18 20 19 23 30 35 31 27 26 26 27 29 31 32 36 42 46 42 41 46 45 45 45 45 41 30 33 31 30 28 38 47 52 51
23 22 20 22 24 22 16 15 15 20 23 26 24 29 37 35 32 27 26 27 28 30 32 33 36 42 44 37 39 48 44 39 43 53 56 46 34 38 27 28 39 43 56
28 22 20 19 21 29 24 19 20 23 23 24 26 30 36 40 36 30 28 28 28 29 30 32 33 36 42 42 37 39 42 38 33 36 46 56 56 59 62 48 35 34 34
38 23 21 20 21 38 38 39 39 42 38 32 35 35 37 41 41 30 28 28 29 29 30 31 32 34 35 40 40 40 40 37 38 35 34 36 40 65 73 71 68 54 35
36 27 22 21 18 38 42 52 51 48 44 45 46 40 41 44 48 31 28 28 29 30 31 32 32 33 35 36 37 37 42 40 41 38 37 35 43 59 61 54 56 60 65
39 30 23 22 17 27 37 43 47 50 53 53 48 48 51 56 39 27 28 30 29 27 29 32 34 36 37 36 38 36 38 40 42 44 38 39 41 53 56 62 54 57 64
43 40 33 22 19 16 28 36 42 46 49 50 52 54 52 32 29 30 17 12 13 14 15 20 28 39 42 42 41 41 37 36 38 41 45 46 46 47 57 60 70 68 65
44 39 31 22 20 16 20 26 37 41 42 45 49 38 30 31 23 13 13 14 14 15 15 16 17 23 37 44 46 45 43 40 39 40 46 51 50 58 59 68 76 69 81
46 38 33 24 22 19 19 23 31 35 37 36 34 33 32 21 14 14 14 15 16 17 16 14 14 17 22 36 44 49 55 55 47 46 50 51 53 51 62 59 83 68 57
46 43 39 30 25 23 21 22 25 28 31 35 33 31 21 16 16 16 15 16 16 13 11 10 10 10 13 19 32 43 54 59 54 51 50 50 55 57 58 53 59 48 32
42 47 46 42 33 26 24 22 25 27 31 34 33 24 19 17 16 16 17 18 15 12 10 10 9 9 9 9 14 34 61 76 66 81 60 66 70 70 76 44 35 20 36
41 44 36 46 45 41 27 26 26 28 31 34 29 24 20 19 17 18 19 18 18 15 13 10 9 10 9 10 16 26 31 33 68 48 93 73 79 55 66 35 29 41 24
23 40 36 36 35 37 36 36 34 32 30 28 26 25 25 23 22 20 20 20 21 21 18 12 10 10 10 10 13 12 37 21 47 19 28 14 15 16 17 16 15 15 13
21 35 30 34 34 61 55 45 47 42 36 29 25 25 26 28 27 25 22 22 24 26 23 16 12 10 10 10 12 12 11 13 14 14 12 12 11 12 12 12 12 11 9
18 31 35 32 39 46 60 54 54 50 47 40 34 32 34 35 34 31 27 24 24 27 27 20 13 12 12 11 12 12 12 12 12 12 12 11 11 10 9 9 9 9 9
22 36 38 39 46 58 59 62 61 56 58 56 52 48 44 44 44 41 36 29 26 26 28 27 17 12 12 13 12 12 12 12 11 11 10 9 9 9 9 9 8 9 9
29 53 54 54 62 64 69 71 69 59 57 53 49 48 55 60 58 54 48 41 32 30 29 29 23 14 12 12 12 12 12 11 10 9 9 9 9 9 10 10 10 9 8
30 46 55 61 68 81 91 91 90 85 73 62 56 51 48 49 56 58 57 53 42 32 32 29 26 16 12 12 11 12 12 11 11 10 10 10 10 11 11 11 10 8 6
39 55 58 63 72 88 98 100 100 100 92 76 60 50 45 50 54 54 61 62 55 38 34 30 26 23 16 14 14 14 13 12 12 12 11 11 12 12 12 12 9 6 5
38 55 63 74 80 90 100 100 99 95 76 56 41 34 31 32 39 47 55 67 62 46 37 34 26 20 18 17 18 16 16 15 14 13 12 11 12 13 14 12 9 6 6
62 68 81 88 98 98 100 88 74 64 51 41 38 37 35 34 36 38 44 57 68 53 40 32 25 21 19 20 20 19 18 18 16 15 13 13 14 15 14 12 8 6 6

GFSSE_700_rhum_171.txt.gz
RH
18 20 21 15 14 15 16 17 19 20 20 21 22 22 23 23 23 24 24 24 25 25 25 25 25 24 23 22 24 32 31 29 36 40 42 42 43 45 47 46 44 42 40
15 20 19 16 14 15 16 17 19 20 21 22 23 23 24 24 24 24 25 25 26 26 27 27 26 26 25 24 24 27 31 39 40 45 46 47 48 48 49 50 49 47 45
20 18 19 17 15 15 16 17 18 19 22 23 23 24 24 24 25 25 26 27 26 28 29 30 30 29 29 27 26 25 26 34 45 54 55 58 55 52 52 53 54 53 51
31 23 23 20 18 15 16 16 18 18 20 22 24 25 25 25 26 26 27 26 26 28 28 31 32 34 35 34 31 29 26 27 33 43 49 52 39 41 51 52 54 59 58
34 28 26 23 24 18 15 15 17 18 19 20 22 25 28 27 28 27 28 28 28 28 28 30 31 31 33 38 39 39 38 32 29 29 37 45 47 40 46 51 51 55 63
28 25 23 22 25 23 17 15 16 17 19 19 20 22 27 31 31 29 29 30 31 29 28 29 31 31 32 32 36 41 45 48 45 40 31 34 40 40 35 48 49 46 52
32 29 24 22 23 25 19 16 16 16 18 19 20 20 24 32 37 37 34 32 32 33 31 30 30 33 33 32 32 34 41 48 56 55 49 54 36 35 32 31 40 49 51
34 32 29 22 23 26 22 17 16 16 17 19 21 22 24 31 41 45 42 38 35 36 36 34 33 34 36 35 34 34 33 35 43 50 55 56 60 53 65 54 38 32 38
37 38 34 24 25 26 25 20 17 17 18 20 22 24 27 33 41 48 52 49 41 38 38 37 40 38 39 39 38 37 35 34 36 42 47 48 44 45 66 80 72 68 50
45 44 38 27 24 26 28 25 22 20 20 22 26 30 34 39 44 49 56 59 47 37 36 36 38 42 43 47 43 42 39 38 36 37 41 46 48 46 52 61 63 58 68
50 47 38 36 26 28 27 28 29 30 29 33 38 39 44 50 54 58 60 61 41 33 33 24 25 31 42 48 48 50 51 45 44 41 40 41 44 42 44 64 74 76 65
50 48 44 41 34 33 29 32 34 39 39 43 47 47 51 58 62 64 64 40 35 18 14 14 16 17 23 36 44 50 57 56 54 52 49 45 43 48 51 54 54 67 70
50 56 50 40 38 32 29 35 41 46 49 52 54 56 61 66 70 69 37 29 16 15 16 16 18 18 18 26 33 37 50 61 65 65 57 49 45 47 57 59 57 64 73
39 57 52 41 40 36 35 38 46 54 57 60 63 63 68 72 74 39 30 18 16 16 16 17 15 12 11 12 17 26 41 64 61 68 68 61 58 58 57 53 54 63 70
23 49 52 55 52 50 40 44 52 56 63 67 70 70 76 79 47 34 20 18 18 18 18 17 16 13 11 10 10 11 22 50 58 59 66 71 69 67 63 59 59 59 61
18 30 39 53 62 63 55 50 57 63 69 74 78 78 84 70 39 24 20 20 21 21 20 19 19 18 14 11 10 11 15 32 59 53 61 70 69 67 69 69 64 58 58
18 30 40 58 62 63 57 63 59 69 77 86 88 89 85 56 33 24 23 23 23 23 22 22 22 22 19 13 11 24 26 64 62 79 76 99 76 85 83 68 94 81 62
19 18 24 41 52 60 56 61 52 64 85 92 92 89 68 47 34 26 25 25 26 27 26 25 25 26 22 16 13 14 16 64 93 71 94 93 89 99 76 54 77 72 64
20 19 20 40 46 53 57 63 63 68 76 96 98 83 70 47 44 37 32 30 31 31 30 28 27 27 26 21 14 13 13 28 97 46 27 44 77 32 69 32 24 25 19
25 24 21 21 47 55 65 76 68 88 85 98 99 84 71 58 57 55 52 46 42 40 37 36 30 28 27 24 17 13 13 15 14 15 18 18 17 21 19 20 19 18 16
30 29 30 25 46 60 73 90 80 71 70 72 97 90 83 80 77 68 66 62 58 53 48 45 36 32 29 25 18 15 14 14 14 13 14 16 16 15 16 16 14 12 11
32 32 32 31 47 69 88 92 87 80 85 89 94 96 100 96 93 89 88 77 74 66 61 54 46 37 32 26 21 17 16 18 16 14 13 13 14 13 12 12 12 12 13
34 34 36 36 48 69 88 95 92 90 92 96 97 99 98 97 93 87 90 78 61 60 65 66 62 52 39 29 22 19 18 17 17 16 15 14 13 14 14 13 14 14 16
37 36 39 46 56 68 86 92 93 99 99 95 98 100 100 97 96 93 80 59 44 37 42 55 62 63 55 35 25 20 17 16 16 16 17 17 16 16 15 15 17 19 18
39 40 40 47 60 72 84 81 83 91 94 97 96 99 85 81 77 60 49 49 45 40 39 39 47 61 62 42 27 21 20 18 16 16 17 18 18 17 16 16 15 16 16
42 43 47 49 67 84 92 91 95 79 63 78 82 81 77 69 67 53 26 30 33 35 32 33 39 57 67 56 34 22 22 20 18 20 21 20 19 19 18 18 15 14 15

GFSSE_700_rhum_174.txt.gz
RH
18 22 19 16 14 15 16 17 19 19 20 20 21 21 22 23 23 23 24 25 25 26 26 25 25 24 23 24 27 31 30 36 39 42 42 42 42 43 43 42 40 39 36
18 18 18 16 15 15 16 17 19 20 21 22 22 23 23 24 24 24 24 26 26 26 27 28 27 27 25 24 25 24 34 38 44 46 47 48 47 46 46 45 45 44 42
17 20 16 16 17 16 16 17 18 20 21 22 23 24 24 25 25 25 26 26 27 26 28 30 31 31 30 27 25 24 27 38 52 57 58 57 54 52 51 50 49 48 48
24 27 22 20 20 17 15 16 18 20 22 23 24 25 25 26 26 26 27 27 28 28 28 29 32 33 34 34 32 29 26 31 38 50 54 50 44 52 55 56 54 53 53
34 26 25 23 22 20 15 15 17 19 20 22 24 25 26 27 28 28 29 30 30 30 30 29 29 31 34 35 34 37 37 32 30 31 45 48 48 43 52 55 55 56 56
29 27 24 23 24 25 17 15 16 18 19 20 21 23 25 28 31 32 32 32 33 34 34 32 30 30 31 34 34 35 38 43 44 39 30 34 47 40 38 51 50 52 55
31 31 26 24 26 30 24 15 16 17 18 20 21 22 23 26 32 38 39 38 37 37 37 37 35 34 31 33 34 34 37 39 42 50 49 51 36 35 33 34 45 53 52
31 33 28 26 26 30 30 18 16 17 18 20 21 22 23 26 32 41 46 47 45 43 42 43 43 38 38 36 37 37 36 40 45 48 51 54 61 51 63 56 37 36 40
37 35 33 30 26 29 32 20 16 17 19 20 21 22 23 26 33 41 50 55 56 52 46 45 45 42 43 43 43 43 42 40 42 48 52 48 42 43 50 74 83 75 62
45 41 39 36 27 27 33 28 20 18 19 21 22 24 25 29 36 44 50 57 63 62 54 48 43 42 41 43 44 48 47 46 44 44 48 51 47 42 43 52 66 71 71
51 48 48 44 33 28 31 36 26 20 21 22 23 26 30 36 43 50 56 60 67 63 48 46 37 27 27 30 34 40 51 54 55 52 49 46 47 42 44 49 69 77 78
50 53 53 52 41 33 32 45 39 24 24 25 28 32 38 45 53 60 67 71 71 43 32 17 17 18 18 19 20 30 45 50 58 64 60 55 49 49 52 56 49 63 68
23 48 56 65 58 44 35 40 45 31 27 30 36 42 46 53 62 72 80 82 47 27 17 17 17 18 18 21 30 30 45 54 52 64 62 61 61 57 58 56 55 59 67
12 42 55 67 60 58 42 45 44 40 34 39 45 52 57 62 72 84 90 63 33 18 19 19 18 16 14 12 11 22 24 36 49 58 66 64 68 70 70 67 65 60 61
13 23 41 58 53 57 64 60 57 55 45 46 53 62 67 72 80 93 88 38 21 21 21 20 19 17 16 14 13 30 12 13 27 52 60 69 77 80 78 74 69 70 65
15 19 23 55 55 60 64 61 59 60 66 62 66 74 81 83 91 99 62 24 22 22 22 21 20 21 20 19 15 13 11 12 16 34 60 63 73 80 81 76 76 75 74
17 16 19 49 58 53 63 63 61 55 50 71 80 85 93 92 96 96 40 23 24 24 24 24 23 23 24 23 20 15 13 32 55 53 70 58 56 58 83 86 73 82 83
19 18 19 33 54 57 56 64 56 56 64 73 86 90 97 99 98 70 33 26 26 28 28 28 27 26 26 26 24 19 15 34 100 94 86 94 98 98 97 86 80 76 79
22 22 20 19 25 51 50 49 56 69 84 86 86 89 90 100 98 75 38 32 30 30 31 31 31 30 28 27 26 23 16 14 18 77 82 79 86 80 74 80 68 58 45
26 27 24 25 22 35 44 45 54 70 78 76 89 86 93 93 99 77 57 49 43 39 40 40 36 35 32 30 28 25 20 15 15 78 99 96 58 36 32 36 30 26 26
30 30 31 30 31 30 41 48 56 72 78 92 81 86 91 100 96 90 79 64 61 63 62 63 68 50 40 34 31 27 23 19 15 14 18 16 18 19 24 24 24 22 21
34 33 32 34 34 41 48 61 76 93 81 96 90 84 97 100 99 96 92 78 73 70 62 70 68 70 61 48 37 31 25 24 22 19 15 15 15 15 16 16 19 18 16
35 34 34 34 39 50 59 67 82 100 92 91 92 90 79 98 100 99 100 98 96 91 83 79 63 46 52 64 54 37 31 25 22 21 20 17 15 14 15 16 17 17 17
38 38 37 42 48 54 64 81 90 87 99 100 88 82 69 100 98 96 95 80 98 86 60 49 42 40 45 60 63 56 36 28 21 21 21 20 18 17 16 15 16 18 18
29 35 38 40 48 65 82 94 94 89 84 49 45 44 48 84 95 84 88 64 50 51 52 49 42 38 37 46 62 62 46 32 22 21 19 18 20 18 20 24 27 16 16
25 24 29 43 53 68 77 80 76 58 44 28 22 22 37 51 58 65 68 55 47 32 28 40 40 37 36 35 50 61 58 37 24 21 20 19 19 20 22 22 24 25 20